Home   Weather   Innsbruck   Past weeks

Flag for Austria Past Weather in Innsbruck, Tyrol, Austria — Yesterday and Last 2 Weeks

Now
57 °F

Passing clouds.


Feels Like: N/A
Forecast: 60 / 77 °F
Wind: N/A

Location: Innsbruck-Flughafen

Current Time: May 30, 2017 at 7:41:16 am

Latest Report: May 30, 2017 at 6:00 am


Visibility: 22 mi

Pressure: 30.01 "Hg (28.05 "Hg at 570m altitude)

Humidity: 75%

Dew Point: 49 °F

Location of InnsbruckLocation

Past Weather in Innsbruck — Graph

°F

Innsbruck Temperature Yesterday

Maximum temperature yesterday: 88 °F (at 5:00 pm)
Minimum temperature yesterday: 55 °F (at 6:00 am)
Average temperature yesterday: 72 °F

High & Low Weather Summary for the Past Weeks

 TemperatureHumidityPressure
High88 °F (May 29, 5:00 pm)98% (May 16, 2:00 am)30.50 "Hg (May 16, 2:00 am)
Low48 °F (May 22, 5:00 am)21% (May 29, 4:00 pm)29.70 "Hg (May 19, 2:00 pm)
Average64 °F61%30.09 "Hg
* Reported May 15 6:00 am — May 30 6:00 am, Innsbruck. Weather by CustomWeather, © 2017

Note: Actual official high and low records may vary slightly from our data, if they occured in-between our weather recording intervals... More about our weather records

Advertising

Innsbruck Weather History for the Previous 24 Hours

Scroll right to see more
 ConditionsComfort  
Time TempWeatherWind HumidityBarometerVisibility
6:00 am
Tue, May 30
57 °FPassing clouds.N/A75%30.01 "Hg22 mi
5:00 am59 °FCool.N/A71%30.00 "Hg28 mi
4:00 am60 °FCool.N/A69%29.98 "Hg28 mi
3:00 am61 °FCool.N/A68%29.98 "Hg28 mi
2:00 am62 °FCool.N/A66%29.97 "Hg28 mi
1:00 am63 °FMild.N/A64%29.96 "Hg31 mi
12:00 am64 °FMild.N/A62%29.95 "Hg28 mi
11:00 pm
Mon, May 29
68 °FMild.N/A54%29.92 "Hg22 mi
10:00 pm72 °FPassing clouds.N/A49%29.89 "Hg22 mi
9:00 pm76 °FPassing clouds.N/A39%29.85 "Hg22 mi
8:00 pm79 °FScattered clouds.5 mph37%29.82 "Hg31 mi
7:00 pm83 °FScattered clouds.5 mph28%29.80 "Hg19 mi
6:00 pm84 °FScattered clouds.7 mph29%29.80 "Hg22 mi
5:00 pm88 °FScattered clouds.6 mph21%29.80 "Hg15 mi
4:00 pm87 °FPassing clouds.3 mph21%29.81 "Hg16 mi
3:00 pm85 °FPassing clouds.5 mph23%29.84 "Hg19 mi
2:00 pm85 °FPassing clouds.N/A30%29.86 "Hg12 mi
1:00 pm83 °FPassing clouds.N/A35%29.89 "Hg16 mi
12:00 pm80 °FPassing clouds.N/A36%29.93 "Hg9 mi
11:00 am76 °FPassing clouds.N/A45%29.96 "Hg11 mi
10:00 am71 °FPassing clouds.N/A49%30.00 "Hg9 mi
9:00 am67 °FSunny.N/A59%30.04 "Hg11 mi
8:00 am63 °FSunny.N/A67%30.08 "Hg12 mi
7:00 am58 °FSunny.N/A77%30.10 "Hg11 mi
Weather by CustomWeather, © 2017

See weather overviewHow to use our weather pages